Location: Bruderhein
(53.8035°N, 112.9265°W)
Time: 07:24:29
(UTC+00:00)

TIGRISAT - Pass Details

Date: 07 April 2023
Orbit: 599 x 682 km, 97.7° (Epoch: 03 June)

Event Time Altitude Azimuth Distance (km) Brightness Sun altitude
Rises 12:01:13 0° 161° (SSE) 2,967 ? -7.7°
Reaches altitude 10° 12:03:24 10° 161° (SSE) 2,073 ? -7.4°
Maximum altitude 12:07:57 84° 74° (ENE) 682 ? -6.8°
Drops below altitude 10° 12:12:37 10° 347° (NNW) 2,129 ? -6.2°
Sets 12:14:53 0° 347° (NNW) 3,055 ? -5.9°
